Location: Unspecified
(0.0000°N, 0.0000°E)
Time: 20:25:10
(UTC+00:00)

Explorer 7 - Pass Details

Date: 22 June 2025
Orbit: 444 x 569 km, 50.3° (Epoch: 12 July)

Event Time Altitude Azimuth Distance (km) Brightness Sun altitude
Rises 22:15:02 0° 317° (NW) 2,446 - -55.0°
Reaches altitude 10° 22:17:09 10° 312° (NW) 1,591 - -55.4°
Maximum altitude 22:20:41 57° 233° (SW) 555 - -56.0°
Drops below altitude 10° 22:24:22 10° 154° (SSE) 1,660 - -56.6°
Sets 22:26:37 0° 149° (SSE) 2,566 - -57.0°
